Time,TemperatureF,DewpointF,PressureIn,WindDirection,WindDirectionDegrees,WindSpeedMPH,WindSpeedGustMPH,Humidity,HourlyPrecipIn,Conditions,Clouds,dailyrainin,SolarRadiationWatts/m^2,SoftwareType,DateUTC
2013-05-21 00:00:00,62.6,61.4,29.99,South,181,0.0,0.0,96,0.00,,,0.01,0,Wunderground v.1.15,2013-05-21 04:00:00,
2013-05-21 00:04:00,62.5,61.3,29.98,South,181,0.0,0.0,96,0.00,,,0.00,0,Wunderground v.1.15,2013-05-21 04:04:00,
2013-05-21 00:09:00,62.4,61.2,29.98,South,181,0.0,0.0,96,0.00,,,0.00,0,Wunderground v.1.15,2013-05-21 04:09:00,
2013-05-21 00:14:00,62.3,61.1,29.98,South,181,0.0,0.0,96,0.00,,,0.00,0,Wunderground v.1.15,2013-05-21 04:14:00,
2013-05-21 00:20:00,62.2,61.0,29.98,South,181,0.0,0.0,96,0.00,,,0.00,0,Wunderground v.1.15,2013-05-21 04:20:00,
2013-05-21 00:29:00,62.0,60.8,29.99,South,181,0.0,0.0,96,0.00,,,0.00,0,Wunderground v.1.15,2013-05-21 04:29:00,
2013-05-21 00:39:00,61.8,60.6,29.98,South,181,0.0,0.0,96,0.00,,,0.00,0,Wunderground v.1.15,2013-05-21 04:39:00,
2013-05-21 00:44:00,61.7,60.5,29.99,South,181,0.0,0.0,96,0.00,,,0.00,0,Wunderground v.1.15,2013-05-21 04:44:00,
2013-05-21 00:55:00,61.5,60.3,29.99,South,181,0.0,0.0,96,0.00,,,0.00,0,Wunderground v.1.15,2013-05-21 04:55:00,
2013-05-21 01:05:00,61.3,60.2,29.99,South,181,0.0,0.0,96,0.00,,,0.00,0,Wunderground v.1.15,2013-05-21 05:05:00,
2013-05-21 01:14:00,61.2,60.1,29.99,South,181,0.0,0.0,96,0.00,,,0.00,0,Wunderground v.1.15,2013-05-21 05:14:00,
2013-05-21 01:19:00,61.1,60.0,29.99,South,181,0.0,0.0,96,0.00,,,0.00,0,Wunderground v.1.15,2013-05-21 05:19:00,
2013-05-21 01:30:00,60.9,60.0,29.98,South,181,0.0,0.0,97,0.00,,,0.00,0,Wunderground v.1.15,2013-05-21 05:30:00,
2013-05-21 01:39:00,60.8,59.7,29.98,South,181,0.0,0.0,96,0.00,,,0.00,0,Wunderground v.1.15,2013-05-21 05:39:00,
2013-05-21 01:54:00,60.6,59.7,29.98,South,181,0.0,0.0,97,0.00,,,0.00,0,Wunderground v.1.15,2013-05-21 05:54:00,
2013-05-21 02:00:00,60.5,59.6,29.97,South,181,0.0,0.0,97,0.00,,,0.00,0,Wunderground v.1.15,2013-05-21 06:00:00,
2013-05-21 02:09:00,60.4,59.5,29.97,South,181,0.0,0.0,97,0.00,,,0.00,0,Wunderground v.1.15,2013-05-21 06:09:00,
2013-05-21 02:15:00,60.3,59.4,29.97,South,181,0.0,0.0,97,0.00,,,0.00,0,Wunderground v.1.15,2013-05-21 06:15:00,
2013-05-21 02:24:00,60.2,59.3,29.97,South,181,0.0,0.0,97,0.00,,,0.00,0,Wunderground v.1.15,2013-05-21 06:24:00,
2013-05-21 02:35:00,60.0,59.1,29.97,South,181,0.0,0.0,97,0.00,,,0.00,0,Wunderground v.1.15,2013-05-21 06:35:00,
2013-05-21 02:45:00,59.8,58.9,29.97,South,181,0.0,0.0,97,0.00,,,0.00,0,Wunderground v.1.15,2013-05-21 06:45:00,
2013-05-21 02:54:00,59.6,58.7,29.97,South,181,0.0,0.0,97,0.00,,,0.00,0,Wunderground v.1.15,2013-05-21 06:54:00,
2013-05-21 03:00:00,59.6,58.7,29.97,South,181,0.0,0.0,97,0.00,,,0.00,0,Wunderground v.1.15,2013-05-21 07:00:00,
2013-05-21 03:09:00,59.6,58.7,29.97,South,181,0.0,0.0,97,0.00,,,0.00,0,Wunderground v.1.15,2013-05-21 07:09:00,
2013-05-21 03:14:00,59.5,58.6,29.97,South,181,0.0,0.0,97,0.00,,,0.00,0,Wunderground v.1.15,2013-05-21 07:14:00,
2013-05-21 03:24:00,59.3,58.4,29.96,South,181,0.0,0.0,97,0.00,,,0.00,0,Wunderground v.1.15,2013-05-21 07:24:00,
2013-05-21 03:34:00,59.3,58.4,29.96,South,181,0.0,0.0,97,0.00,,,0.00,0,Wunderground v.1.15,2013-05-21 07:34:00,
2013-05-21 03:45:00,59.1,58.2,29.96,South,181,0.0,0.0,97,0.00,,,0.00,0,Wunderground v.1.15,2013-05-21 07:45:00,
2013-05-21 03:54:00,58.9,58.1,29.96,South,181,0.0,0.0,97,0.00,,,0.00,0,Wunderground v.1.15,2013-05-21 07:54:00,
2013-05-21 03:59:00,58.8,58.0,29.96,South,181,0.0,0.0,97,0.00,,,0.00,0,Wunderground v.1.15,2013-05-21 07:59:00,
2013-05-21 04:10:00,58.7,57.9,29.96,South,181,0.0,0.0,97,0.00,,,0.00,0,Wunderground v.1.15,2013-05-21 08:10:00,
2013-05-21 04:20:00,58.6,57.8,29.96,South,181,0.0,0.0,97,0.00,,,0.00,0,Wunderground v.1.15,2013-05-21 08:20:00,
2013-05-21 04:29:00,58.4,57.6,29.97,South,181,0.0,0.0,97,0.00,,,0.00,0,Wunderground v.1.15,2013-05-21 08:29:00,
2013-05-21 04:34:00,58.4,57.6,29.97,South,181,0.0,0.0,97,0.00,,,0.00,0,Wunderground v.1.15,2013-05-21 08:34:00,
2013-05-21 04:45:00,58.2,57.4,29.97,South,181,0.0,0.0,97,0.00,,,0.00,0,Wunderground v.1.15,2013-05-21 08:45:00,
2013-05-21 04:55:00,58.3,57.5,29.97,South,181,0.0,0.0,97,0.00,,,0.00,0,Wunderground v.1.15,2013-05-21 08:55:00,
2013-05-21 05:05:00,58.5,57.9,29.96,South,181,0.0,0.0,98,0.00,,,0.00,0,Wunderground v.1.15,2013-05-21 09:05:00,
2013-05-21 05:14:00,58.6,58.0,29.96,South,181,0.0,0.0,98,0.00,,,0.00,0,Wunderground v.1.15,2013-05-21 09:14:00,
2013-05-21 05:24:00,58.8,58.2,29.97,South,181,0.0,0.0,98,0.00,,,0.00,0,Wunderground v.1.15,2013-05-21 09:24:00,
2013-05-21 05:30:00,58.9,58.3,29.97,South,181,0.0,0.0,98,0.00,,,0.00,0,Wunderground v.1.15,2013-05-21 09:30:00,
2013-05-21 05:39:00,59.0,58.4,29.97,South,181,0.0,0.0,98,0.00,,,0.00,0,Wunderground v.1.15,2013-05-21 09:39:00,
2013-05-21 05:44:00,59.1,58.5,29.98,South,181,0.0,0.0,98,0.00,,,0.00,0,Wunderground v.1.15,2013-05-21 09:44:00,
2013-05-21 05:54:00,59.4,58.8,29.98,South,181,0.0,0.0,98,0.00,,,0.00,0,Wunderground v.1.15,2013-05-21 09:54:00,
2013-05-21 06:04:00,59.6,59.0,29.99,SW,217,0.0,0.0,98,0.00,,,0.00,5,Wunderground v.1.15,2013-05-21 10:04:00,
2013-05-21 06:14:00,60.0,59.4,29.99,SSW,209,0.0,0.0,98,0.00,,,0.00,5,Wunderground v.1.15,2013-05-21 10:14:00,
2013-05-21 06:19:00,60.3,59.7,30.00,SSW,209,0.0,1.0,98,0.00,,,0.00,9,Wunderground v.1.15,2013-05-21 10:19:00,
2013-05-21 06:29:00,60.7,60.1,30.00,SSW,209,0.0,0.0,98,0.00,,,0.00,14,Wunderground v.1.15,2013-05-21 10:29:00,
2013-05-21 06:35:00,61.0,60.4,30.00,SSW,209,0.0,0.0,98,0.00,,,0.00,19,Wunderground v.1.15,2013-05-21 10:35:00,
2013-05-21 06:45:00,61.3,60.7,30.00,SSW,209,0.0,0.0,98,0.00,,,0.00,23,Wunderground v.1.15,2013-05-21 10:45:00,
2013-05-21 06:50:00,61.4,60.8,30.00,SSW,209,0.0,0.0,98,0.00,,,0.00,25,Wunderground v.1.15,2013-05-21 10:50:00,
2013-05-21 07:00:00,61.7,61.1,30.00,SSW,209,0.0,0.0,98,0.00,,,0.00,28,Wunderground v.1.15,2013-05-21 11:00:00,
2013-05-21 07:09:00,62.2,61.9,30.00,SSW,209,0.0,0.0,99,0.00,,,0.00,39,Wunderground v.1.15,2013-05-21 11:09:00,
2013-05-21 07:19:00,62.9,62.6,29.99,WSW,242,0.0,0.0,99,0.00,,,0.00,53,Wunderground v.1.15,2013-05-21 11:19:00,
2013-05-21 07:24:00,63.5,63.2,29.99,WSW,242,0.0,0.0,99,0.00,,,0.00,49,Wunderground v.1.15,2013-05-21 11:24:00,
2013-05-21 07:35:00,64.7,64.4,29.99,WSW,238,0.0,0.0,99,0.00,,,0.00,63,Wunderground v.1.15,2013-05-21 11:35:00,
2013-05-21 07:45:00,65.9,65.6,29.99,West,281,0.0,2.0,99,0.00,,,0.00,97,Wunderground v.1.15,2013-05-21 11:45:00,
2013-05-21 07:54:00,66.4,66.1,30.00,West,268,0.0,0.0,99,0.00,,,0.00,62,Wunderground v.1.15,2013-05-21 11:54:00,
2013-05-21 07:59:00,66.6,66.3,29.99,West,268,0.0,0.0,99,0.00,,,0.00,62,Wunderground v.1.15,2013-05-21 11:59:00,
2013-05-21 08:10:00,66.8,66.5,30.00,SW,217,0.0,0.0,99,0.00,,,0.00,102,Wunderground v.1.15,2013-05-21 12:10:00,
2013-05-21 08:19:00,67.1,66.8,29.99,WNW,292,0.0,0.0,99,0.00,,,0.00,142,Wunderground v.1.15,2013-05-21 12:19:00,
2013-05-21 08:25:00,67.2,66.9,29.99,WNW,295,0.0,0.0,99,0.00,,,0.00,160,Wunderground v.1.15,2013-05-21 12:25:00,
2013-05-21 08:34:00,67.4,67.1,29.98,WSW,248,0.0,0.0,99,0.00,,,0.00,142,Wunderground v.1.15,2013-05-21 12:34:00,
2013-05-21 08:40:00,67.7,67.4,29.99,SW,234,0.0,0.0,99,0.00,,,0.00,432,Wunderground v.1.15,2013-05-21 12:40:00,
2013-05-21 08:50:00,68.1,67.5,29.99,WNW,285,0.0,0.0,98,0.00,,,0.00,141,Wunderground v.1.15,2013-05-21 12:50:00,
2013-05-21 08:59:00,69.1,68.5,29.99,WNW,300,0.0,1.0,98,0.00,,,0.00,547,Wunderground v.1.15,2013-05-21 12:59:00,
2013-05-21 09:04:00,69.6,68.7,29.98,SW,230,0.0,2.0,97,0.00,,,0.00,540,Wunderground v.1.15,2013-05-21 13:04:00,
2013-05-21 09:15:00,70.8,69.3,29.98,SW,229,1.0,1.0,95,0.00,,,0.00,580,Wunderground v.1.15,2013-05-21 13:15:00,
2013-05-21 09:25:00,72.2,69.4,29.98,SW,230,1.0,3.0,91,0.00,,,0.00,485,Wunderground v.1.15,2013-05-21 13:25:00,
2013-05-21 09:35:00,73.1,69.3,29.98,SW,225,1.0,1.0,88,0.00,,,0.00,615,Wunderground v.1.15,2013-05-21 13:35:00,
2013-05-21 09:40:00,73.7,69.9,29.98,SE,138,1.0,1.0,88,0.00,,,0.00,645,Wunderground v.1.15,2013-05-21 13:40:00,
2013-05-21 09:50:00,75.2,70.0,29.98,ESE,110,2.0,2.0,84,0.00,,,0.00,649,Wunderground v.1.15,2013-05-21 13:50:00,
2013-05-21 09:59:00,76.2,69.9,29.98,SW,227,0.0,0.0,81,0.00,,,0.00,712,Wunderground v.1.15,2013-05-21 13:59:00,
2013-05-21 10:05:00,76.3,70.0,29.97,SW,226,0.0,0.0,81,0.00,,,0.00,584,Wunderground v.1.15,2013-05-21 14:05:00,
2013-05-21 10:14:00,77.3,70.6,29.97,West,279,0.0,0.0,80,0.00,,,0.00,756,Wunderground v.1.15,2013-05-21 14:14:00,
2013-05-21 10:20:00,77.2,69.8,29.97,WSW,246,0.0,0.0,78,0.00,,,0.00,751,Wunderground v.1.15,2013-05-21 14:20:00,
2013-05-21 10:29:00,77.2,70.2,29.97,SW,227,0.0,2.0,79,0.00,,,0.00,784,Wunderground v.1.15,2013-05-21 14:29:00,
2013-05-21 10:35:00,77.6,70.9,29.96,West,280,1.0,1.0,80,0.00,,,0.00,779,Wunderground v.1.15,2013-05-21 14:35:00,
2013-05-21 10:54:00,78.0,70.2,29.97,SSW,207,1.0,1.0,77,0.00,,,0.00,856,Wunderground v.1.15,2013-05-21 14:54:00,
2013-05-21 11:00:00,78.4,71.0,29.97,SSW,198,1.0,1.0,78,0.00,,,0.00,782,Wunderground v.1.15,2013-05-21 15:00:00,
2013-05-21 11:09:00,79.2,71.0,29.96,SW,231,1.0,1.0,76,0.00,,,0.00,949,Wunderground v.1.15,2013-05-21 15:09:00,
2013-05-21 11:14:00,79.5,70.9,29.96,WSW,255,1.0,1.0,75,0.00,,,0.00,290,Wunderground v.1.15,2013-05-21 15:14:00,
2013-05-21 11:25:00,79.3,70.7,29.96,South,178,0.0,2.0,75,0.00,,,0.00,325,Wunderground v.1.15,2013-05-21 15:25:00,
2013-05-21 11:35:00,79.5,71.7,29.96,ESE,113,1.0,1.0,77,0.00,,,0.00,276,Wunderground v.1.15,2013-05-21 15:35:00,
2013-05-21 11:45:00,79.6,71.0,29.95,South,174,1.0,1.0,75,0.00,,,0.00,919,Wunderground v.1.15,2013-05-21 15:45:00,
2013-05-21 11:50:00,80.0,71.0,29.95,SW,232,1.0,1.0,74,0.00,,,0.00,345,Wunderground v.1.15,2013-05-21 15:50:00,
2013-05-21 11:59:00,80.1,70.7,29.95,WNW,283,1.0,1.0,73,0.00,,,0.00,972,Wunderground v.1.15,2013-05-21 15:59:00,
2013-05-21 12:04:00,80.5,70.6,29.94,SW,234,1.0,1.0,72,0.00,,,0.00,1011,Wunderground v.1.15,2013-05-21 16:04:00,
2013-05-21 12:14:00,81.1,71.6,29.94,WNW,298,1.0,1.0,73,0.00,,,0.00,954,Wunderground v.1.15,2013-05-21 16:14:00,
2013-05-21 12:24:00,81.7,70.5,29.94,SSW,200,2.0,4.0,69,0.00,,,0.00,960,Wunderground v.1.15,2013-05-21 16:24:00,
2013-05-21 12:39:00,81.8,71.5,29.94,West,263,2.0,2.0,71,0.00,,,0.00,979,Wunderground v.1.15,2013-05-21 16:39:00,
2013-05-21 12:45:00,81.6,70.0,29.94,SSW,196,2.0,2.0,68,0.00,,,0.00,334,Wunderground v.1.15,2013-05-21 16:45:00,
2013-05-21 12:54:00,81.8,71.1,29.94,ESE,115,1.0,7.0,70,0.00,,,0.00,949,Wunderground v.1.15,2013-05-21 16:54:00,
2013-05-21 13:00:00,81.6,70.9,29.94,SSW,206,2.0,2.0,70,0.00,,,0.00,944,Wunderground v.1.15,2013-05-21 17:00:00,
2013-05-21 13:05:00,81.4,70.7,29.94,WSW,256,2.0,2.0,70,0.00,,,0.00,176,Wunderground v.1.15,2013-05-21 17:05:00,
2013-05-21 13:10:00,81.3,71.0,29.94,WNW,292,1.0,2.0,71,0.00,,,0.00,986,Wunderground v.1.15,2013-05-21 17:10:00,
2013-05-21 13:20:00,81.9,71.2,29.94,SW,229,2.0,4.0,70,0.00,,,0.00,682,Wunderground v.1.15,2013-05-21 17:20:00,
2013-05-21 13:30:00,81.6,71.7,29.94,WSW,242,2.0,2.0,72,0.00,,,0.00,847,Wunderground v.1.15,2013-05-21 17:30:00,
2013-05-21 13:40:00,82.8,72.0,29.93,West,275,2.0,2.0,70,0.00,,,0.00,905,Wunderground v.1.15,2013-05-21 17:40:00,
2013-05-21 13:50:00,83.0,71.3,29.93,WNW,292,1.0,1.0,68,0.00,,,0.00,339,Wunderground v.1.15,2013-05-21 17:50:00,
2013-05-21 14:00:00,82.7,71.5,29.93,West,269,1.0,2.0,69,0.00,,,0.00,940,Wunderground v.1.15,2013-05-21 18:00:00,
2013-05-21 14:09:00,83.2,71.1,29.92,South,171,1.0,1.0,67,0.00,,,0.00,874,Wunderground v.1.15,2013-05-21 18:09:00,
2013-05-21 14:15:00,83.2,70.2,29.92,SE,134,2.0,2.0,65,0.00,,,0.00,244,Wunderground v.1.15,2013-05-21 18:15:00,
2013-05-21 14:20:00,83.3,70.8,29.92,WNW,296,2.0,3.0,66,0.00,,,0.00,844,Wunderground v.1.15,2013-05-21 18:20:00,
2013-05-21 14:30:00,83.5,70.5,29.92,SE,131,1.0,1.0,65,0.00,,,0.00,123,Wunderground v.1.15,2013-05-21 18:30:00,
2013-05-21 14:40:00,83.5,70.5,29.92,WNW,294,1.0,1.0,65,0.00,,,0.00,188,Wunderground v.1.15,2013-05-21 18:40:00,
2013-05-21 14:50:00,83.3,71.2,29.92,WSW,254,1.0,2.0,67,0.00,,,0.00,230,Wunderground v.1.15,2013-05-21 18:50:00,
2013-05-21 14:59:00,82.7,71.5,29.91,South,184,1.0,3.0,69,0.00,,,0.00,181,Wunderground v.1.15,2013-05-21 18:59:00,
2013-05-21 15:05:00,82.7,71.1,29.91,South,174,1.0,3.0,68,0.00,,,0.00,127,Wunderground v.1.15,2013-05-21 19:05:00,
2013-05-21 15:10:00,82.9,70.8,29.91,South,175,2.0,8.0,67,0.00,,,0.00,135,Wunderground v.1.15,2013-05-21 19:10:00,
2013-05-21 15:20:00,82.6,71.0,29.91,WNW,298,3.0,3.0,68,0.00,,,0.00,146,Wunderground v.1.15,2013-05-21 19:20:00,
2013-05-21 15:29:00,82.5,70.9,29.91,West,280,2.0,4.0,68,0.00,,,0.00,113,Wunderground v.1.15,2013-05-21 19:29:00,
2013-05-21 15:35:00,82.5,70.9,29.91,West,281,2.0,4.0,68,0.00,,,0.00,102,Wunderground v.1.15,2013-05-21 19:35:00,
2013-05-21 15:45:00,82.5,70.9,29.91,NW,313,2.0,2.0,68,0.00,,,0.00,135,Wunderground v.1.15,2013-05-21 19:45:00,
2013-05-21 15:50:00,82.4,71.6,29.90,WNW,296,1.0,2.0,70,0.00,,,0.00,102,Wunderground v.1.15,2013-05-21 19:50:00,
2013-05-21 15:59:00,82.2,70.6,29.90,West,267,2.0,2.0,68,0.00,,,0.00,109,Wunderground v.1.15,2013-05-21 19:59:00,
2013-05-21 16:05:00,82.1,70.9,29.90,SW,223,3.0,3.0,69,0.00,,,0.00,90,Wunderground v.1.15,2013-05-21 20:05:00,
2013-05-21 16:15:00,81.8,70.2,29.89,SSW,196,3.0,5.0,68,0.00,,,0.00,88,Wunderground v.1.15,2013-05-21 20:15:00,
2013-05-21 16:24:00,81.9,70.7,29.89,WNW,290,1.0,2.0,69,0.00,,,0.00,76,Wunderground v.1.15,2013-05-21 20:24:00,
2013-05-21 16:34:00,81.8,70.6,29.89,West,281,2.0,2.0,69,0.00,,,0.00,70,Wunderground v.1.15,2013-05-21 20:34:00,
2013-05-21 16:40:00,81.7,70.5,29.89,West,262,2.0,3.0,69,0.00,,,0.00,67,Wunderground v.1.15,2013-05-21 20:40:00,
2013-05-21 16:50:00,81.7,70.5,29.89,West,279,2.0,2.0,69,0.00,,,0.00,63,Wunderground v.1.15,2013-05-21 20:50:00,
2013-05-21 16:59:00,81.7,70.1,29.88,SW,232,2.0,2.0,68,0.00,,,0.00,60,Wunderground v.1.15,2013-05-21 20:59:00,
2013-05-21 17:05:00,81.7,70.5,29.89,WNW,291,1.0,3.0,69,0.00,,,0.00,58,Wunderground v.1.15,2013-05-21 21:05:00,
2013-05-21 17:15:00,81.6,69.6,29.89,WSW,247,2.0,6.0,67,0.00,,,0.00,54,Wunderground v.1.15,2013-05-21 21:15:00,
2013-05-21 17:25:00,81.5,69.0,29.89,South,175,1.0,1.0,66,0.00,,,0.00,53,Wunderground v.1.15,2013-05-21 21:25:00,
2013-05-21 17:34:00,81.2,69.2,29.88,WSW,242,2.0,2.0,67,0.00,,,0.00,51,Wunderground v.1.15,2013-05-21 21:34:00,
2013-05-21 17:40:00,81.0,69.0,29.88,SSE,151,2.0,8.0,67,0.00,,,0.00,49,Wunderground v.1.15,2013-05-21 21:40:00,
2013-05-21 17:50:00,81.2,69.2,29.88,WNW,284,2.0,2.0,67,0.00,,,0.00,46,Wunderground v.1.15,2013-05-21 21:50:00,
2013-05-21 18:00:00,81.0,69.4,29.87,South,183,1.0,6.0,68,0.00,,,0.00,40,Wunderground v.1.15,2013-05-21 22:00:00,
2013-05-21 18:09:00,80.8,69.7,29.87,West,266,2.0,3.0,69,0.00,,,0.00,39,Wunderground v.1.15,2013-05-21 22:09:00,
2013-05-21 18:15:00,80.7,69.6,29.87,WSW,256,1.0,4.0,69,0.00,,,0.00,35,Wunderground v.1.15,2013-05-21 22:15:00,
2013-05-21 18:20:00,80.7,69.6,29.87,NW,309,1.0,1.0,69,0.00,,,0.00,33,Wunderground v.1.15,2013-05-21 22:20:00,
2013-05-21 18:29:00,80.4,70.5,29.88,WSW,240,1.0,1.0,72,0.00,,,0.00,32,Wunderground v.1.15,2013-05-21 22:29:00,
2013-05-21 18:35:00,80.2,70.4,29.87,SSW,203,1.0,1.0,72,0.00,,,0.00,33,Wunderground v.1.15,2013-05-21 22:35:00,
2013-05-21 18:45:00,79.8,69.1,29.88,West,281,1.0,1.0,70,0.00,,,0.00,26,Wunderground v.1.15,2013-05-21 22:45:00,
2013-05-21 18:55:00,79.6,68.5,29.87,SW,230,1.0,2.0,69,0.00,,,0.00,23,Wunderground v.1.15,2013-05-21 22:55:00,
2013-05-21 19:05:00,79.3,68.7,29.88,West,259,1.0,1.0,70,0.00,,,0.00,21,Wunderground v.1.15,2013-05-21 23:05:00,
2013-05-21 19:14:00,78.9,68.7,29.88,SSW,206,1.0,3.0,71,0.00,,,0.00,18,Wunderground v.1.15,2013-05-21 23:14:00,
2013-05-21 19:20:00,78.6,68.4,29.88,SW,234,1.0,1.0,71,0.00,,,0.00,16,Wunderground v.1.15,2013-05-21 23:20:00,
2013-05-21 19:30:00,78.3,68.5,29.88,SSW,203,0.0,0.0,72,0.00,,,0.00,7,Wunderground v.1.15,2013-05-21 23:30:00,
2013-05-21 19:35:00,77.9,68.5,29.87,SSW,213,0.0,0.0,73,0.00,,,0.00,5,Wunderground v.1.15,2013-05-21 23:35:00,
2013-05-21 19:49:00,77.2,68.3,29.88,SSW,207,0.0,0.0,74,0.00,,,0.00,0,Wunderground v.1.15,2013-05-21 23:49:00,
2013-05-21 19:55:00,77.0,68.9,29.88,WSW,255,0.0,1.0,76,0.00,,,0.00,0,Wunderground v.1.15,2013-05-21 23:55:00,
2013-05-21 20:05:00,76.3,68.6,29.88,WSW,253,0.0,0.0,77,0.00,,,0.00,0,Wunderground v.1.15,2013-05-22 00:05:00,
2013-05-21 20:20:00,74.9,68.7,29.88,SSE,164,0.0,0.0,81,0.00,,,0.00,0,Wunderground v.1.15,2013-05-22 00:20:00,
2013-05-21 20:29:00,74.5,68.6,29.88,West,279,0.0,0.0,82,0.00,,,0.00,0,Wunderground v.1.15,2013-05-22 00:29:00,
2013-05-21 20:35:00,74.2,68.7,29.88,West,279,0.0,0.0,83,0.00,,,0.00,0,Wunderground v.1.15,2013-05-22 00:35:00,
2013-05-21 20:44:00,73.8,68.3,29.87,ESE,111,0.0,0.0,83,0.00,,,0.00,0,Wunderground v.1.15,2013-05-22 00:44:00,
2013-05-21 20:50:00,73.6,68.1,29.87,ESE,111,0.0,0.0,83,0.00,,,0.00,0,Wunderground v.1.15,2013-05-22 00:50:00,
2013-05-21 20:59:00,73.0,68.2,29.88,ESE,111,0.0,0.0,85,0.00,,,0.00,0,Wunderground v.1.15,2013-05-22 00:59:00,
2013-05-21 21:05:00,72.6,67.8,29.88,ESE,111,0.0,0.0,85,0.00,,,0.00,0,Wunderground v.1.15,2013-05-22 01:05:00,
2013-05-21 21:15:00,72.1,67.7,29.88,ESE,111,0.0,0.0,86,0.00,,,0.00,0,Wunderground v.1.15,2013-05-22 01:15:00,
2013-05-21 21:24:00,71.5,67.4,29.88,ESE,111,0.0,0.0,87,0.00,,,0.00,0,Wunderground v.1.15,2013-05-22 01:24:00,
2013-05-21 21:30:00,71.2,67.5,29.88,ESE,111,0.0,0.0,88,0.00,,,0.00,0,Wunderground v.1.15,2013-05-22 01:30:00,
2013-05-21 21:40:00,70.7,67.3,29.88,ESE,111,0.0,0.0,89,0.00,,,0.00,0,Wunderground v.1.15,2013-05-22 01:40:00,
2013-05-21 21:50:00,70.3,67.2,29.88,ESE,111,0.0,0.0,90,0.00,,,0.00,0,Wunderground v.1.15,2013-05-22 01:50:00,
2013-05-21 21:59:00,69.8,66.7,29.88,ESE,111,0.0,0.0,90,0.00,,,0.00,0,Wunderground v.1.15,2013-05-22 01:59:00,
2013-05-21 22:05:00,69.7,67.0,29.88,ESE,111,0.0,0.0,91,0.00,,,0.00,0,Wunderground v.1.15,2013-05-22 02:05:00,
2013-05-21 22:15:00,69.4,66.7,29.88,ESE,111,0.0,0.0,91,0.00,,,0.00,0,Wunderground v.1.15,2013-05-22 02:15:00,
2013-05-21 22:24:00,69.1,66.7,29.88,ESE,111,0.0,0.0,92,0.00,,,0.00,0,Wunderground v.1.15,2013-05-22 02:24:00,
2013-05-21 22:30:00,68.9,66.5,29.88,ESE,111,0.0,0.0,92,0.00,,,0.00,0,Wunderground v.1.15,2013-05-22 02:30:00,
2013-05-21 22:40:00,68.6,66.5,29.87,ESE,111,0.0,0.0,93,0.00,,,0.00,0,Wunderground v.1.15,2013-05-22 02:40:00,
2013-05-21 22:50:00,68.3,66.2,29.86,ESE,111,0.0,0.0,93,0.00,,,0.00,0,Wunderground v.1.15,2013-05-22 02:50:00,
2013-05-21 23:00:00,68.1,66.0,29.87,ESE,111,0.0,0.0,93,0.00,,,0.00,0,Wunderground v.1.15,2013-05-22 03:00:00,
2013-05-21 23:10:00,67.8,66.0,29.88,ESE,111,0.0,0.0,94,0.00,,,0.00,0,Wunderground v.1.15,2013-05-22 03:10:00,
2013-05-21 23:19:00,67.6,65.8,29.88,ESE,111,0.0,0.0,94,0.00,,,0.00,0,Wunderground v.1.15,2013-05-22 03:19:00,
2013-05-21 23:25:00,67.5,65.7,29.88,SSW,213,0.0,0.0,94,0.00,,,0.00,0,Wunderground v.1.15,2013-05-22 03:25:00,
2013-05-21 23:34:00,67.4,65.9,29.88,SSW,213,0.0,0.0,95,0.00,,,0.00,0,Wunderground v.1.15,2013-05-22 03:34:00,
2013-05-21 23:40:00,67.2,65.4,29.88,SSW,213,0.0,0.0,94,0.00,,,0.00,0,Wunderground v.1.15,2013-05-22 03:40:00,
2013-05-21 23:49:00,67.1,65.6,29.89,SSW,213,0.0,0.0,95,0.00,,,0.00,0,Wunderground v.1.15,2013-05-22 03:49:00,
2013-05-21 23:55:00,67.0,65.2,29.89,SSW,213,0.0,0.0,94,0.00,,,0.00,0,Wunderground v.1.15,2013-05-22 03:55:00,